Starlink 30800

operational
NORAD ID: 58206 Int'l Des: 2023-170 Owner: SPXS Country: US Constellation: starlink
LEOCIRCULAR

Über Starlink 30800

Beschreibung wird geladen...

Live-Position

3D-Globus wird geladen...

Nächste Überflüge

Höhenverlauf

Altitude vs Time

uPlot chart will show altitude changes over time

Zweizeiliger Elementsatz

1 58206U 23170A 25303.70597626 .00001880 00000-0 15420-3 0 9991
2 58206 43.0027 182.4644 0000958 279.1713 80.9021 15.02536066110725
Epoch: 30. Okt. 2025 • Age: 17 hours

Aktueller Status

Höhe 570.3 km
Geschwindigkeit 7.58 km/s
Subsatellitenpunkt -39.28°S, 130.58°W
Startdatum 4. Nov. 2023
Alter 1.9 years
Typ internet

Technische Details

Klassifizierung Payload
Masse 730.00 kg
Trockenmasse 700.00 kg
Gesamtmasse 730.00 kg
Länge 0.30 m
Durchmesser 4.10 m
Spannweite 29.00 m
Form Box + pan
Hersteller SPXS
Bus-Typ Starlink V2M
Phasenstatus In Orbit
Besitzer/Staat SPXS/US

Große Konstellationen

Loading constellations...